Planetum 1
1 52738U 22057G 24333.65579122 .05368615 25621-5 14475-2 0 9991
2 52738 97.5545 110.5066 0010110 292.3147 67.7073 16.28123814140205
Foresail-1
1 52766U 22057AL 24333.28134018 .00067844 00000-0 13494-2 0 9996
2 52766 97.5966 104.3371 0007676 265.2202 94.8171 15.46680133139677
SNUGLITE 2
1 52899U 22065F 24333.37981440 .00004455 00000-0 89483-3 0 9992
2 52899 98.1410 111.7161 0007614 7.0439 353.0868 14.62117292128242
IO-117
1 53106U 22080B 24331.77042742 -.00000003 00000-0 00000-0 0 9997
2 53106 70.1300 136.0386 0008362 70.8561 289.3004 6.42557781 55710
FO-118
1 54684U 22167C 24333.88530690 .00131402 00000-0 20304-2 0 9991
2 54684 97.6141 125.0702 0008756 279.6279 80.3984 15.53598741109631
SSS-2B
1 56184U 23054G 24333.85142551 .00400730 00000-0 18782-2 0 9996
2 56184 97.3393 236.2488 0004372 94.6601 265.5167 15.82163425 91712
SO-120
1 56992U 23084BU 24333.78731080 .00165626 00000-0 24088-2 0 9997
2 56992 97.5376 97.5368 0005600 179.4373 180.6888 15.55170276 81482
MRC-100
1 56993U 23084BV 24333.31772027 .00312283 00000-0 27715-2 0 9996
2 56993 97.5339 98.6511 0003983 217.0466 143.0520 15.67584382 81529
UmKA 1 (RS40S)
1 57172U 23091G 24333.88897901 .00013732 00000-0 81422-3 0 9998
2 57172 97.5905 24.4641 0014301 279.5179 80.4435 15.11398279 78330
CubeBel-2 (EU11S)
1 57175U 23091K 24333.83584899 .00020756 00000-0 11608-2 0 9997
2 57175 97.5902 24.6763 0012647 291.6036 68.3847 15.13430619 78345
VERONIKA
1 58261U 23174F 24333.76579944 .00064834 00000-0 18920-2 0 9992
2 58261 97.4433 48.2367 0009156 22.5610 337.6034 15.35060940 58823
KAFASAT
1 58317U 23174BP 24333.47772183 .00100149 00000-0 21593-2 0 9992
2 58317 97.4363 49.7079 0007401 350.0143 10.0957 15.44177170 58914
ENSO
1 58470U 23185J 24333.83652331 .00048440 00000-0 14308-2 0 9997
2 58470 97.4059 39.7738 0010643 58.5144 301.7138 15.34745022 55284
EIRSAT-1
1 58472U 23185L 24333.81299885 .00060024 00000-0 16509-2 0 9995
2 58472 97.4050 40.0751 0009808 57.6615 302.5577 15.36932192 55308
SONATE-2
1 59112U 24043Q 24333.29635172 .00030025 00000-0 11627-2 0 9990
2 59112 97.4946 96.3086 0013666 80.3690 279.9091 15.26037009 40766
MO-122
1 60209U 24125G 24332.55394218 .00028191 00000-0 10862-2 0 9992
2 60209 97.2997 181.4204 0024637 107.4107 252.9828 15.26015457 22268
GRBBeta
1 60237U 24128C 24333.17112535 .00008942 00000-0 73360-3 0 9990
2 60237 61.9954 32.3866 0028820 7.9083 352.2455 14.99515718 21165
Curium One
1 60242U 24128H 24332.93772769 .00013960 00000-0 11212-2 0 9993
2 60242 61.9857 33.3062 0029098 358.9475 1.1548 14.99984648 21136
ROBUSTA-3A
1 60243U 24128J 24333.75967989 .00016470 00000-0 13297-2 0 9999
2 60243 61.9924 30.7429 0027318 356.6691 3.4212 14.99723191 21258
CatSat
1 60246U 24125J 24333.57659091 .00023092 00000-0 91935-3 0 9995
2 60246 97.2800 183.2497 0050222 59.9138 300.7065 15.24058937 20520
CosmoGirlSat
1 60953U 98067WT 24333.67008497 .00774501 26800-3 19388-2 0 9993
2 60953 51.6182 209.7729 0010845 212.2474 147.7872 15.95038477 14307
Sakura
1 60954U 98067WU 24331.73493809 .02223257 53765-2 20174-2 0 9997
2 60954 51.6124 217.8107 0010323 214.7181 145.3161 16.13092160 14021
CySat-1
1 61501U 98067WZ 24333.40847480 .00296564 00000-0 24611-2 0 9991
2 61501 51.6329 218.6045 0012380 210.1707 149.8578 15.68637963 7990
DORA
1 61502U 98067XA 24332.70883291 .05483889 11710-4 31917-2 0 9998
2 61502 51.5998 218.3610 0016594 207.4139 152.6004 16.17695191 7927
AO-123
1 99130U 24099A 24333.51783565 .00064425 00000-0 27016-2 0 00003
2 99130 097.3813 197.9452 0017922 153.5116 004.4393 15.23389487000019
/EX
1
0
29 Nov '24
The following satellite has been added to this week's AMSAT TLE distribution:
AO-123 Provisional catalog number 99130 IARU coordinated downlink 435.4000 MHz
Joe Fitzgerald KM1P
AMSAT Orbital Elements Manager
1
0
22 Nov '24
The following satellite has been removed from this week's AMSAT TLE distribution:
XW-2B NORAD Cat ID 40911 Decayed from orbit on 21 November 2024
Joe Fitzgerald KM1P
AMSAT Orbital Elements Manager
1
0
SB KEPS @ AMSAT $ORB24327.1
2Line Orbital Elements 24327.AMSAT
QST de W1STR
AMSAT Orbital Elements for Amateur Satellites in TLE Format
>From Orbital Analysis Office
New England Sci-Tech STEM Education Center
Natick, MA November 22, 2024
To all radio amateurs
These element sets describe the orbits of various satellites
in use by the amateur radio community. For details see:
www.amsat.org/keplerian-elements-formats/
A daily update of element sets is available at:
www.amsat.org/tle/daily-bulletin.txt
or without bulletin text:
www.amsat.org/tle/dailytle.txt
AO-07
1 07530U 74089B 24326.45262685 -.00000036 00000-0 66119-4 0 9995
2 07530 101.9895 322.6351 0012288 143.1129 14.0129 12.53682712288747
UO-11
1 14781U 84021B 24326.31629231 .00003389 00000-0 37442-3 0 9996
2 14781 97.7280 291.1802 0006202 282.5493 77.5030 14.88064212171841
AO-27
1 22825U 93061C 24325.57782470 .00000258 00000-0 11595-3 0 9993
2 22825 98.7684 19.8344 0008096 349.0386 11.0618 14.30659395624978
FO-29
1 24278U 96046B 24325.35077294 .00000037 00000-0 71464-4 0 9997
2 24278 98.5862 239.5543 0350648 143.6596 218.8914 13.53222327395554
NOAA-15
1 25338U 98030A 24326.68302715 .00000346 00000-0 16057-3 0 9995
2 25338 98.5556 350.4444 0009556 219.6121 140.4362 14.26801335379891
GO-32
1 25397U 98043D 24326.75689371 .00000262 00000-0 13385-3 0 9996
2 25397 98.9454 296.0140 0002329 74.7167 285.4269 14.24193580370066
ISS
1 25544U 98067A 24326.71833241 .00023589 00000-0 42270-3 0 9991
2 25544 51.6385 254.9358 0007553 253.3030 106.7130 15.49798097482980
NO-44
1 26931U 01043C 24326.42409998 .00000509 00000-0 22227-3 0 9993
2 26931 67.0506 285.2614 0007191 262.0386 97.9900 14.31504958208611
SO-50
1 27607U 02058C 24326.34690056 .00002998 00000-0 40718-3 0 9998
2 27607 64.5539 98.0302 0032136 31.5954 328.7071 14.80332640179781
CO-55
1 27844U 03031E 24325.49057394 .00000741 00000-0 34392-3 0 9995
2 27844 98.6787 330.3962 0010653 55.2051 305.0129 14.23648756110054
CO-57
1 27848U 03031J 24326.47316685 .00000584 00000-0 27836-3 0 9999
2 27848 98.6815 331.5146 0010678 67.7134 292.5176 14.23035955109954
RS-22
1 27939U 03042A 24326.74640766 .00002980 00000-0 49144-3 0 9990
2 27939 98.3073 125.7632 0010666 283.9459 200.8472 14.71210891131436
NOAA-18
1 28654U 05018A 24326.72682341 .00000399 00000-0 23564-3 0 9993
2 28654 98.8628 42.3039 0013696 340.2987 19.7654 14.13426733 5514
CO-58
1 28895U 05043F 24326.37109742 .00004007 00000-0 68486-3 0 9990
2 28895 98.2234 102.8042 0014614 218.1634 141.8537 14.69390886 17753
CO-65
1 32785U 08021C 24326.48982132 .00008404 00000-0 67222-3 0 9998
2 32785 97.7723 291.0451 0011605 164.3399 195.8185 15.00403199899030
AAUSAT2
1 32788U 08021F 24326.69851365 .00060574 00000-0 18513-2 0 9991
2 32788 97.6052 309.0428 0005259 40.8778 319.2857 15.33645041902413
CO-66
1 32791U 08021J 24326.34301913 .00017808 00000-0 10889-2 0 9996
2 32791 97.7098 297.4307 0006808 115.4036 244.7898 15.10288998900189
